EW6756 Weather Reports


time (UTC)temp
F
wind
direction
speed
knots
gust
knots
rain 1hr
in
rain 24hr
in
rain mn
in
humidity
%
barometer
mb
20260504203718 49 0 0.0 0.0 0.00 0.01 0.01 80 1013.3
20260504203003 49 0 0.0 0.0 0.00 0.02 0.01 80 1013.4
20260504202503 49 0 0.0 0.0 0.00 0.02 0.01 80 1013.7
20260504202003 49 0 0.0 0.0 0.00 0.02 0.01 80 1013.6
20260504201717 49 0 0.0 0.0 0.00 0.02 0.01 79 1013.5
20260504201003 50 0 0.0 0.0 0.00 0.02 0.01 79 1013.5
20260504200503 50 0 0.0 0.0 0.00 0.02 0.01 79 1013.4
20260504200003 50 0 0.0 0.0 0.00 0.03 0.01 78 1013.4
20260504195503 50 0 0.0 0.0 0.00 0.03 0.01 78 1013.5
20260504195003 51 0 0.0 0.0 0.00 0.03 0.01 78 1013.6
20260504194503 51 0 0.0 0.0 0.00 0.03 0.01 78 1013.5
20260504194003 51 0 0.0 0.0 0.00 0.03 0.01 78 1013.4
20260504193503 52 0 0.0 0.0 0.00 0.03 0.01 77 1013.4
20260504193003 52 0 0.0 0.0 0.00 0.04 0.01 77 1013.2
20260504192503 52 0 0.0 0.0 0.00 0.04 0.01 77 1013.1
20260504192003 53 0 0.0 0.0 0.00 0.04 0.01 77 1013.2
20260504191503 53 0 0.0 0.0 0.00 0.05 0.01 77 1013.2
20260504191003 53 0 0.0 0.0 0.00 0.06 0.01 77 1013.1
20260504190503 53 0 0.0 0.0 0.00 0.06 0.01 77 1013.1
20260504190218 54 0 0.0 0.0 0.00 0.06 0.01 77 1012.9
20260504185503 54 0 0.0 0.0 0.00 0.06 0.01 77 1013.0
20260504185003 54 0 0.0 0.0 0.00 0.07 0.01 76 1012.9
20260504184503 54 0 0.0 0.0 0.00 0.07 0.01 76 1013.0
20260504184003 55 0 0.0 0.0 0.00 0.07 0.01 76 1013.0
20260504183503 55 0 0.0 0.0 0.00 0.07 0.01 76 1013.1
20260504183218 55 0 0.0 0.0 0.00 0.07 0.01 76 1013.0
20260504182717 55 0 0.0 0.0 0.00 0.07 0.01 75 1013.1
20260504182003 56 145 0.0 0.9 0.00 0.07 0.01 75 1012.8
20260504181503 56 145 0.0 0.9 0.00 0.07 0.01 75 1013.0
20260504181003 56 0 0.0 0.0 0.00 0.07 0.01 75 1012.8
20260504180503 56 124 0.0 0.9 0.00 0.07 0.01 75 1012.9
20260504180003 56 116 0.0 0.9 0.00 0.07 0.01 74 1012.6
20260504175503 56 109 0.0 0.9 0.00 0.07 0.01 74 1012.8
20260504175003 57 109 0.0 0.9 0.00 0.07 0.01 74 1012.8
20260504174503 57 0 0.0 0.0 0.00 0.07 0.01 74 1012.6
20260504174218 57 0 0.0 0.9 0.00 0.07 0.01 74 1012.8
20260504173716 57 134 0.0 0.9 0.00 0.07 0.01 74 1012.8
20260504173003 58 0 0.0 0.0 0.00 0.07 0.01 74 1013.1
20260504172716 58 186 0.0 0.9 0.00 0.07 0.01 74 1013.1
20260504172003 58 271 0.0 0.9 0.00 0.07 0.01 73 1013.0
20260504171718 58 319 0.0 0.9 0.00 0.07 0.01 73 1013.1
20260504171003 58 341 0.0 3.5 0.00 0.07 0.01 74 1012.9
20260504170503 58 216 0.0 3.5 0.00 0.07 0.01 74 1012.8
20260504170217 58 203 0.0 3.5 0.00 0.07 0.01 74 1012.7
20260504160217 59 219 0.0 3.5 0.00 0.07 0.01 73 1012.9
20260504151003 60 110 0.0 2.6 0.00 0.07 0.01 74 1013.2
20260504150503 60 190 0.9 3.5 0.00 0.07 0.01 74 1013.1
20260504150216 60 204 0.9 3.5 0.00 0.07 0.01 74 1013.1
20260504141003 59 225 0.9 6.1 0.00 0.07 0.01 77 1013.5
20260504140503 58 236 1.7 7.0 0.00 0.07 0.01 76 1013.5
20260504140218 58 220 0.9 7.0 0.00 0.07 0.01 76 1013.6
20260504130503 59 228 0.9 8.7 0.00 0.07 0.01 75 1013.6
20260504130218 59 215 0.9 8.7 0.00 0.07 0.01 76 1013.8
20260504110503 58 210 1.7 4.3 0.00 0.07 0.01 79 1013.7
20260504100503 56 145 0.9 3.5 0.00 0.07 0.01 81 1013.7
20260504082003 55 222 0.9 8.7 0.00 0.07 0.01 84 1013.0
20260504081503 55 201 0.9 3.5 0.00 0.07 0.01 84 1012.9
20260504081218 55 182 0.9 3.5 0.00 0.07 0.01 84 1013.0
20260504080503 55 212 0.9 2.6 0.00 0.07 0.01 84 1012.8
20260504050503 53 203 0.0 0.9 0.00 0.07 0.01 91 1011.2
20260504050003 53 284 0.0 0.9 0.00 0.07 0.01 91 1011.3
20260504045503 53 209 0.0 0.9 0.00 0.07 0.01 91 1011.0
20260504045003 53 225 0.0 2.6 0.00 0.07 0.01 91 1010.9
20260504044504 53 224 0.0 2.6 0.00 0.07 0.01 91 1010.8
20260504044003 53 234 0.0 2.6 0.00 0.07 0.01 91 1011.0
20260504043503 53 239 0.0 2.6 0.00 0.07 0.01 91 1010.8
20260504043003 53 212 0.0 0.9 0.00 0.07 0.01 92 1010.8
20260504042718 53 214 0.0 0.9 0.00 0.07 0.01 92 1010.7
20260504042003 53 222 0.0 2.6 0.00 0.07 0.01 92 1010.7
20260504041503 52 257 0.0 2.6 0.00 0.07 0.01 92 1010.8
20260504041216 52 230 0.0 3.5 0.00 0.07 0.01 92 1010.8
20260504040503 52 232 0.0 3.5 0.00 0.07 0.01 92 1010.9
20260504040003 52 262 0.0 4.3 0.00 0.07 0.01 92 1010.8
20260504035503 52 266 0.9 4.3 0.00 0.07 0.01 92 1010.6
20260504035216 53 264 0.9 4.3 0.00 0.07 0.01 92 1010.5
20260504034717 52 261 0.9 3.5 0.00 0.07 0.01 91 1010.5
20260504034003 53 251 0.9 4.3 0.00 0.07 0.01 91 1010.5
20260504033503 53 228 0.9 4.3 0.00 0.07 0.01 91 1010.7
20260504033003 53 249 0.9 6.1 0.00 0.07 0.01 91 1010.4
20260504032503 53 238 1.7 6.1 0.00 0.07 0.01 91 1010.4
20260504032003 53 223 1.7 6.1 0.00 0.07 0.01 91 1010.5
20260504031503 53 216 0.9 6.1 0.00 0.07 0.01 91 1010.6
20260504031218 53 219 0.9 6.1 0.00 0.07 0.01 91 1010.3
20260504030503 53 205 0.9 6.1 0.00 0.07 0.01 91 1010.4
20260504030003 53 246 1.7 9.6 0.00 0.07 0.01 91 1010.3
20260504025503 53 246 1.7 9.6 0.00 0.07 0.01 91 1010.4
20260504025003 53 214 1.7 9.6 0.00 0.07 0.01 91 1010.2
20260504024503 53 197 1.7 8.7 0.00 0.07 0.01 91 1010.0
20260504024003 53 219 0.9 7.0 0.00 0.07 0.01 91 1010.0
20260504023503 54 256 0.9 7.0 0.00 0.07 0.01 91 1009.8
20260504023003 54 261 0.9 7.0 0.00 0.07 0.01 91 1010.2
20260504022503 54 191 0.0 6.1 0.00 0.07 0.01 90 1010.0
20260504022003 54 202 0.9 7.0 0.00 0.07 0.01 90 1010.0
20260504021503 54 221 1.7 9.6 0.00 0.07 0.01 90 1010.0
20260504021003 54 228 1.7 9.6 0.00 0.07 0.01 90 1009.7
20260504020503 54 251 1.7 9.6 0.00 0.07 0.01 90 1010.0
20260504020218 55 253 1.7 9.6 0.00 0.07 0.01 91 1009.7
20260504015503 55 220 1.7 9.6 0.00 0.07 0.01 91 1009.8
20260504015218 55 212 0.9 8.7 0.00 0.07 0.01 91 1009.7
20260504014503 56 192 1.7 7.0 0.00 0.07 0.01 91 1009.7
20260504014003 56 227 2.6 7.0 0.00 0.07 0.01 92 1009.7
20260504013503 56 235 1.7 6.1 0.00 0.07 0.01 92 1009.7
20260504013003 56 265 0.9 6.1 0.00 0.07 0.01 92 1009.7
20260504012503 56 269 1.7 9.6 0.00 0.07 0.01 92 1009.8
20260504012003 56 245 1.7 9.6 0.00 0.07 0.01 92 1009.6
20260504011716 56 232 1.7 8.7 0.00 0.07 0.01 92 1009.4
20260504011003 57 227 1.7 6.1 0.00 0.07 0.01 93 1009.6
20260504010503 57 252 1.7 7.0 0.00 0.07 0.01 93 1009.4
20260504010003 57 270 1.7 7.0 0.00 0.07 0.01 93 1009.5
20260504005503 57 249 1.7 6.1 0.00 0.07 0.01 93 1009.5
20260504005003 57 218 0.9 4.3 0.00 0.07 0.01 93 1009.4
20260504004503 57 217 0.9 4.3 0.00 0.07 0.01 93 1009.4
20260504004003 57 223 0.9 8.7 0.00 0.07 0.01 93 1009.1
20260504003718 57 224 0.9 8.7 0.00 0.07 0.01 93 1009.5
20260504003003 57 228 0.9 4.3 0.00 0.07 0.01 93 1009.2
20260504002503 57 243 0.9 6.1 0.00 0.07 0.01 93 1009.5
20260504002003 57 254 0.9 6.1 0.00 0.07 0.01 93 1009.3
20260504001503 57 245 0.9 6.1 0.00 0.07 0.01 93 1009.1
20260504001003 57 230 0.9 6.1 0.00 0.07 0.01 93 1009.2
20260504000718 57 238 0.9 6.1 0.00 0.07 0.01 93 1009.3
20260504000003 57 243 0.9 9.6 0.00 0.07 0.01 93 1009.2
20260503235503 58 248 0.9 10.4 0.00 0.07 0.01 93 1009.2
20260503235003 57 237 1.7 10.4 0.00 0.07 0.01 94 1009.1
20260503234503 57 217 1.7 8.7 0.00 0.07 0.01 94 1009.1
20260503234217 57 219 0.9 4.3 0.00 0.07 0.01 93 1009.3
20260503233503 57 239 0.9 4.3 0.00 0.07 0.01 93 1009.1
20260503233003 58 211 0.9 6.1 0.00 0.07 0.01 93 1009.0
20260503232503 58 206 0.9 6.1 0.00 0.07 0.01 93 1009.2
20260503232003 58 199 0.9 3.5 0.00 0.07 0.01 94 1009.2
20260503231503 58 209 0.0 3.5 0.00 0.07 0.01 94 1009.2
20260503231216 58 220 0.0 3.5 0.01 0.07 0.01 94 1009.2
20260503230503 58 218 0.9 4.3 0.01 0.07 0.01 94 1009.1
20260503230216 58 228 0.9 6.1 0.01 0.07 0.01 94 1009.1
20260503225503 58 246 1.7 6.1 0.01 0.07 0.01 94 1009.1
20260503225003 58 245 0.9 4.3 0.01 0.07 0.01 94 1009.2
20260503224503 58 233 0.9 7.0 0.01 0.07 0.01 94 1009.2
20260503224003 58 220 0.9 7.0 0.01 0.07 0.01 94 1009.1
20260503223503 58 217 1.7 7.0 0.01 0.07 0.01 94 1008.9
20260503223003 58 221 2.6 9.6 0.01 0.07 0.01 93 1009.1
20260503222503 58 220 1.7 9.6 0.01 0.07 0.01 93 1009.0
20260503222003 58 210 0.9 7.0 0.01 0.07 0.01 93 1008.8
20260503221503 58 209 0.9 4.3 0.01 0.07 0.01 93 1009.0
20260503221003 58 217 0.0 6.1 0.00 0.06 0.00 93 1009.0
20260503220503 58 229 0.9 6.1 0.00 0.06 0.00 93 1009.0
20260503220003 58 237 0.9 6.1 0.00 0.06 0.00 93 1009.2
20260503215503 58 235 0.9 4.3 0.00 0.06 0.06 93 1009.1
20260503215218 58 223 0.9 4.3 0.00 0.06 0.06 92 1009.1
20260503214503 58 214 0.9 3.5 0.00 0.06 0.06 92 1009.0
20260503214003 58 220 0.0 2.6 0.00 0.06 0.06 92 1009.0
20260503213503 58 223 0.9 3.5 0.00 0.06 0.06 92 1009.1
20260503213003 58 220 0.9 3.5 0.00 0.06 0.06 92 1009.1
20260503212503 58 219 0.9 3.5 0.00 0.06 0.06 92 1009.3
20260503212003 58 216 0.0 2.6 0.00 0.06 0.06 92 1009.1
20260503211503 58 216 0.0 2.6 0.01 0.06 0.06 91 1009.0
20260503211003 58 214 0.0 2.6 0.01 0.06 0.06 91 1009.1
20260503210503 59 193 0.0 2.6 0.01 0.06 0.06 91 1009.1
20260503210003 59 205 0.0 2.6 0.02 0.06 0.06 91 1009.1
20260503205503 59 214 0.0 2.6 0.02 0.06 0.06 91 1009.2
20260503205003 59 220 0.0 2.6 0.02 0.06 0.06 91 1009.2
20260503204503 59 200 0.0 2.6 0.02 0.06 0.06 90 1009.0
20260503204003 59 205 0.0 2.6 0.02 0.06 0.06 90 1008.9